Location: ??????
(55.7522°N, 37.6156°E)
Time: 18:28:38
(UTC+00:00)

Cosmos 1455 - Pass Details

Date: 14 June 2025
Orbit: 313 x 317 km, 82.5° (Epoch: 13 July)

Event Time Altitude Azimuth Distance (km) Brightness Sun altitude
Rises 19:20:05 0° 333° (NNW) 2,080 8.1 -6.3°
Reaches altitude 10° 19:22:31 10° 308° (NW) 1,247 5.4 -6.4°
Maximum altitude 19:24:08 15° 271° (W) 1,016 4.1 -6.5°
Drops below altitude 10° 19:25:45 10° 234° (SW) 1,250 4.1 -6.6°
Enters shadow 19:28:36 -1° 207° (SSW) 2,245 5.1 -6.8°
